SCP
0 0 0 0 0 0 0 0 0 0 0 0 0 0 0 0 0 0 0 0 0 0 0 1 1 1 1 1 1 0 0 0 0 0 0 0 0 0 0 0 0 0 0
0 0 0 0 0 0 0 0 0 0 0 0 0 0 0 0 0 0 0 0 0 0 0 1 1 1 1 1 1 1 0 0 0 0 0 0 0 0 0 0 0 0 0
0 0 0 0 0 0 0 0 0 0 0 0 0 0 0 0 0 0 0 0 0 0 0 1 1 1 1 1 1 1 1 1 0 0 0 0 0 0 0 0 0 0 0
0 1 1 0 0 0 0 0 0 0 0 0 0 0 0 0 0 0 0 1 1 0 0 1 1 1 1 1 1 1 1 1 1 1 1 1 0 0 0 0 0 0 0
1 1 1 1 0 0 0 0 0 0 0 0 0 0 0 0 0 0 0 1 1 1 0 1 1 1 1 1 1 1 1 1 1 1 1 1 1 0 0 0 0 0 0
1 1 1 1 1 1 1 1 1 1 1 1 0 0 0 0 0 0 0 0 1 1 1 0 0 1 1 1 1 1 1 1 1 1 1 1 1 1 0 0 0 0 0
2 2 2 1 1 1 1 1 1 1 1 1 0 0 0 0 0 0 0 0 0 1 1 0 0 0 1 1 1 1 1 1 1 1 1 1 1 1 0 0 0 0 0
2 2 2 2 1 1 1 1 1 1 0 0 0 0 0 0 0 0 0 0 0 0 0 0 1 1 1 1 1 1 1 1 1 1 1 1 1 1 0 0 0 0 0
2 2 2 2 1 1 1 1 1 1 1 1 0 0 0 0 0 0 0 0 0 0 0 0 0 1 1 1 1 1 1 1 1 1 1 0 0 0 0 0 0 0 0
3 3 2 2 1 1 1 1 1 1 1 1 1 1 0 0 0 0 0 0 0 0 0 0 0 0 1 1 1 1 1 1 1 1 0 0 0 0 0 0 0 0 0
3 3 3 2 2 1 1 1 1 1 1 1 1 1 1 0 0 0 0 0 0 0 0 0 0 0 0 1 1 1 1 1 1 1 0 0 0 0 0 0 0 0 0
2 3 3 2 2 2 1 1 1 1 1 1 1 1 1 1 0 0 0 0 0 0 0 0 0 0 0 0 0 1 1 1 1 1 0 0 0 0 0 0 0 0 0
2 2 2 2 2 2 1 1 1 1 1 1 1 1 1 1 1 0 0 0 0 0 0 0 0 0 0 0 0 1 1 1 1 1 1 0 0 0 0 0 0 0 0
2 2 1 2 2 2 1 1 1 1 1 1 1 1 1 1 1 0 0 0 0 0 0 0 0 0 0 0 0 0 0 0 0 0 0 0 0 0 0 0 0 0 0
1 1 1 1 1 1 1 1 1 1 1 1 1 1 1 1 1 1 1 0 0 0 0 0 0 0 1 1 0 0 0 0 0 0 0 0 0 0 0 0 0 0 0
1 1 1 1 1 1 1 0 0 0 0 0 1 1 0 0 0 1 1 1 0 0 0 0 0 0 0 1 0 0 0 0 0 0 0 0 0 0 0 0 0 0 0
0 1 1 0 0 0 0 0 0 0 0 0 0 1 0 0 0 1 1 1 1 0 0 0 0 0 0 0 0 0 0 0 0 0 0 0 0 0 0 0 0 0 0
0 0 0 0 0 0 0 0 0 0 0 0 0 0 0 0 0 1 1 1 0 0 0 0 0 0 0 0 0 0 0 0 0 0 0 0 0 0 0 0 0 0 0
0 0 0 0 0 0 0 0 0 0 0 0 0 0 0 1 0 0 0 0 0 0 0 0 0 0 0 0 0 0 0 0 0 0 0 0 0 0 0 0 0 0 0
0 0 0 0 1 1 0 0 0 0 0 0 0 0 0 1 1 0 0 0 0 0 0 0 0 0 0 0 0 0 0 0 0 0 0 0 0 0 0 0 0 0 0
0 0 1 1 1 1 1 0 0 0 0 0 0 0 0 1 1 1 0 0 0 0 0 0 0 0 0 0 0 0 0 0 0 0 0 0 0 0 0 0 0 0 0
0 1 1 1 1 1 1 0 0 0 1 1 1 0 1 1 1 0 0 0 0 0 0 0 0 0 0 0 0 0 0 0 0 0 0 0 0 0 0 0 0 0 0
0 1 1 1 1 0 0 0 0 0 1 1 1 1 0 0 0 0 0 0 0 0 0 0 0 0 0 0 0 0 0 0 0 0 0 0 0 0 0 0 0 0 0
0 0 1 1 0 0 0 0 0 0 1 1 1 0 0 0 0 0 0 0 0 0 0 0 0 0 0 0 0 0 0 0 0 0 0 0 0 0 0 0 0 0 0
0 0 0 0 0 0 0 0 0 0 0 0 0 0 0 0 0 0 0 0 0 0 0 0 0 0 0 0 0 0 0 0 0 0 0 0 0 0 0 0 0 0 0
0 0 0 0 0 0 0 0 0 0 0 0 0 0 0 0 0 0 0 0 0 0 0 0 0 0 0 0 0 0 0 0 0 0 0 0 0 0 0 0 0 0 0
Wind_Speed
4 3 3 5 5 4 4 3 4 2 2 4 3 4 3 3 4 6 4 6 5 4 3 4 4 3 3 3 3 3 4 4 4 5 5 5 5 4 4 3 3 2 2
3 3 2 3 2 3 4 3 2 3 1 2 3 3 2 3 3 7 6 5 6 5 5 5 5 4 4 3 3 3 3 3 4 4 4 4 4 4 3 2 2 1 1
4 3 2 4 2 2 4 2 1 2 2 2 2 1 2 2 1 5 6 6 5 5 6 6 5 5 4 4 3 3 3 3 3 3 3 3 3 3 3 3 2 1 1
6 4 1 2 2 2 2 2 1 1 1 1 2 2 2 2 1 3 4 6 6 5 5 7 7 6 5 4 4 4 3 3 2 2 2 2 2 2 3 3 2 3 3
5 4 3 1 2 1 1 2 1 1 0 0 1 1 1 2 2 3 3 6 7 7 5 6 8 7 6 5 4 4 3 3 3 3 2 2 1 2 2 3 3 3 4
3 4 3 2 1 2 1 1 1 1 1 1 2 1 1 1 2 1 1 3 5 8 8 7 5 5 7 6 5 4 4 3 3 3 2 2 1 1 2 3 4 4 4
2 4 3 2 2 2 1 1 0 1 0 1 1 2 2 2 3 2 2 1 3 6 8 8 6 6 4 7 6 5 4 4 3 3 3 2 1 0 1 2 3 4 4
1 2 3 2 2 1 1 1 1 0 1 1 1 1 2 3 3 2 2 2 2 3 3 5 7 7 7 5 6 7 5 4 4 3 3 2 1 1 1 1 2 3 3
3 2 2 2 2 3 2 3 3 3 3 2 2 3 3 3 2 3 3 3 3 2 3 2 4 7 8 7 6 6 7 5 4 4 3 2 1 1 1 2 2 2 3
3 3 2 0 2 2 3 4 5 4 4 4 3 3 3 3 2 2 3 2 2 3 3 2 1 1 5 7 8 11 9 6 4 4 3 2 1 0 1 1 2 3 3
4 2 1 1 2 2 4 5 4 4 4 5 4 3 3 2 3 2 2 2 2 1 2 2 3 2 3 7 7 10 11 9 6 5 4 3 2 1 0 1 2 3 3
3 2 0 1 3 3 4 4 4 5 5 5 4 3 3 3 3 3 3 3 3 3 2 2 2 3 3 5 8 15 13 11 8 6 5 4 3 2 2 2 2 3 3
2 1 2 2 2 3 3 2 3 3 5 5 4 4 3 3 2 2 2 3 3 3 2 1 2 2 3 4 6 15 13 12 10 9 7 5 4 3 2 2 2 3 3
2 2 3 2 3 3 2 1 1 2 2 3 4 4 3 3 3 3 3 2 2 3 2 3 1 2 2 3 8 15 9 13 12 11 9 8 6 5 4 3 2 2 3
3 2 2 3 4 3 2 1 1 2 1 1 1 1 2 2 2 3 3 3 3 3 4 4 2 2 2 1 6 7 7 13 14 13 12 11 9 8 6 5 3 2 2
1 2 3 4 4 4 3 2 1 0 0 1 1 2 2 2 2 2 2 2 3 4 3 3 3 2 1 1 4 5 6 15 17 16 14 13 11 10 8 7 6 4 3
2 3 4 4 3 4 4 4 2 2 1 2 2 3 3 3 2 2 2 3 3 3 4 3 2 1 1 1 2 3 3 5 8 15 16 15 14 12 11 10 8 7 6
3 4 4 3 2 2 2 4 4 3 3 2 2 2 3 2 3 3 2 3 3 4 4 4 3 2 3 3 3 3 3 4 5 13 17 16 15 14 13 11 10 9 9
4 3 2 2 2 2 2 2 2 3 3 3 3 3 2 1 1 2 3 3 3 3 3 3 3 2 1 1 1 2 2 2 3 7 14 14 14 14 13 13 12 12 11
4 4 2 1 0 1 1 0 1 1 2 2 1 1 1 2 2 1 0 1 1 1 2 2 2 1 1 1 1 2 2 2 2 2 5 8 11 14 14 14 14 13 13
7 6 6 5 5 3 5 6 5 3 1 1 0 3 5 5 5 3 2 2 2 1 0 1 1 1 1 1 2 2 2 2 2 2 2 3 4 5 8 12 15 16 15
7 8 8 7 7 7 9 9 6 5 4 2 1 2 4 5 5 4 3 2 1 1 1 1 0 0 1 2 1 1 2 1 2 1 1 2 2 4 4 5 9 14 16
7 7 7 6 6 7 10 9 8 5 5 3 2 0 1 4 2 2 3 4 3 3 2 0 1 0 0 1 1 1 1 2 2 1 0 2 1 3 3 3 5 9 11
6 6 6 6 5 7 11 9 8 5 4 4 3 2 2 3 4 4 1 1 1 4 4 2 1 2 2 1 1 1 1 1 1 1 1 1 1 2 2 2 3 4 6
5 5 5 6 6 6 11 10 8 4 3 3 3 4 5 4 5 6 4 3 3 1 2 1 1 2 2 1 1 1 0 0 1 1 2 1 2 2 2 2 2 4 5
4 4 4 5 5 5 9 11 9 3 3 2 3 4 8 6 6 6 4 4 4 3 2 1 0 0 1 2 2 1 0 0 1 1 1 1 1 1 2 1 0 1 2
Wind_Direction
212 173 181 164 184 176 169 239 243 168 48 58 45 62 74 85 104 110 122 126 126 125 132 135 129 131 129 123 126 144 151 152 156 156 157 154 149 139 131 125 117 105 87
206 153 203 146 199 159 165 220 214 112 88 76 53 61 45 57 108 126 135 132 129 124 121 128 127 120 121 128 129 135 153 162 167 171 176 179 174 162 156 153 149 139 124
187 166 203 152 196 173 179 218 123 109 124 131 137 103 89 45 48 128 139 146 139 123 120 119 124 124 120 119 124 129 132 146 166 182 190 192 192 185 184 188 190 191 208
178 164 168 148 183 166 149 112 49 90 142 177 166 166 143 142 241 144 157 153 149 141 130 127 125 124 120 116 122 120 122 126 136 153 172 182 196 212 219 225 233 238 240
172 149 145 142 151 112 108 146 165 152 171 142 135 141 200 169 180 207 183 153 150 150 145 143 139 136 133 128 130 135 133 130 135 131 133 140 177 227 245 247 251 251 250
137 126 132 157 119 109 79 23 127 94 32 3 292 198 190 198 227 235 165 147 165 158 158 161 157 154 150 143 139 139 142 138 142 142 140 138 144 198 252 260 260 258 253
85 111 124 120 86 105 129 278 337 153 248 291 330 346 327 267 251 182 209 229 205 152 164 169 171 162 157 150 144 144 142 141 137 137 131 121 114 124 290 276 270 267 257
106 108 122 123 117 119 174 268 299 138 260 252 165 126 322 316 301 243 202 205 254 155 193 184 168 160 161 156 159 146 137 142 144 136 122 114 97 77 4 317 289 279 270
73 72 113 143 166 167 199 233 239 213 216 248 213 168 183 226 272 289 240 205 207 181 199 224 185 170 161 151 150 147 141 141 147 143 132 123 112 79 27 354 333 308 285
71 56 28 311 202 184 199 222 228 218 207 224 238 223 212 189 177 276 299 270 219 203 204 201 200 136 149 138 151 154 153 153 159 162 161 150 133 106 345 340 329 322 302
83 63 5 296 266 230 215 217 232 220 214 219 222 220 228 238 222 200 251 286 298 264 232 223 175 180 148 141 149 163 163 165 173 186 191 189 191 195 277 333 339 335 324
95 84 318 279 271 258 244 222 215 221 220 223 222 215 206 203 212 210 219 236 251 264 248 222 185 178 165 153 164 163 168 171 179 188 196 202 208 219 246 273 309 329 325
109 158 214 224 252 261 259 234 220 222 218 220 221 219 218 223 224 214 213 232 239 255 264 239 206 190 181 158 151 166 175 176 182 189 194 197 199 205 224 258 292 311 318
170 203 214 219 230 243 261 248 245 241 229 220 222 219 211 225 220 212 205 208 236 250 248 247 236 211 202 178 172 175 180 184 187 192 195 197 199 203 213 230 258 293 313
182 187 211 216 215 213 227 229 226 252 250 276 267 257 222 221 211 213 211 193 189 218 238 235 231 217 190 177 172 186 179 191 193 195 197 199 201 205 210 217 226 246 281
178 197 229 224 202 189 189 172 193 265 281 247 199 259 257 244 233 216 218 213 197 198 231 235 220 219 188 174 171 201 203 193 197 196 198 200 202 204 208 214 219 226 240
247 241 237 227 199 179 178 167 190 182 207 259 240 222 229 229 223 219 217 219 216 202 225 250 233 210 186 181 198 242 226 181 195 200 201 202 203 205 209 213 219 223 229
261 261 249 237 162 159 181 168 184 177 188 217 238 242 244 220 214 219 218 226 223 212 210 239 245 213 208 202 202 230 239 205 199 203 204 204 205 207 210 213 218 222 226
284 272 257 241 178 174 160 165 189 193 187 199 210 217 226 195 210 208 218 229 231 232 213 221 247 224 203 195 211 248 260 265 250 201 201 207 210 211 213 216 219 222 225
327 325 329 341 277 171 145 214 240 199 182 194 201 192 92 75 60 28 284 234 236 239 228 224 240 239 200 177 178 229 258 254 264 240 205 207 214 218 221 221 222 224 226
359 1 4 8 17 26 35 25 2 355 359 342 348 90 93 99 90 68 56 36 27 17 287 227 242 225 208 180 211 209 235 257 264 248 231 217 207 215 220 228 231 230 227
13 11 10 12 15 29 28 26 11 348 340 337 7 112 145 151 139 141 145 131 91 49 34 26 316 234 246 220 217 205 213 229 265 275 228 247 214 227 228 220 226 226 227
21 15 12 11 23 32 20 11 2 338 319 316 327 12 90 101 133 171 196 209 209 196 199 35 12 319 192 179 169 217 220 215 235 244 192 270 251 251 252 257 250 229 227
23 21 16 12 24 29 18 5 350 317 305 311 329 6 61 79 47 34 16 283 196 184 201 203 87 70 69 92 133 173 198 221 258 219 145 267 284 265 270 270 268 237 233
26 25 18 17 24 24 16 7 351 315 318 332 18 37 50 69 45 30 9 355 13 63 147 130 103 118 124 109 98 77 76 10 299 265 171 223 278 283 282 267 250 226 239
25 24 26 25 27 23 18 17 5 343 342 5 53 65 61 61 46 28 13 21 32 11 23 78 94 227 210 214 214 231 233 246 300 312 172 200 290 329 324 309 248 220 250